Home > Weather > Kohtla-Järve > Past weeks

Flag for Estonia Weather for the Past 2 Weeks in Kohtla-Järve, Estonia

Now
51 °F

Overcast.


Feels Like: 51 °F
Forecast: 42 / 57 °F
Wind: 1 mph from Northeast

Location: Johvi

Current Time: May 4, 2016 at 12:05:46 AM

Latest Report: May 3, 2016 at 11:00 PM


Visibility: 25 mi

Pressure: 30.11 "Hg

Humidity: 57%

Dew Point: 36 °F

Location of Kohtla-JärveLocation

Historic Weather in Kohtla-Järve — Graph

°F

Kohtla-Järve Temperature Yesterday

Maximum temperature yesterday: 63 °F (at 2:00 PM)
Minimum temperature yesterday: 37 °F (at 3:00 AM)
Average temperature yesterday: 53 °F

High & Low Weather Summary for the Past Weeks

 TemperatureHumidityPressure
High63 °F (May 3, 2:00 PM)98% (Apr 24, 3:00 AM)30.37 "Hg (Apr 24, 3:00 AM)
Low28 °F (Apr 21, 11:00 PM)33% (Apr 21, 7:00 PM)29.50 "Hg (Apr 26, 10:00 PM)
Average45 °F73%29.93 "Hg
* Reported Apr 18 10:00 PM — May 3 10:00 PM, Kohtla-Järve, Weather by CustomWeather, © 2016

Note: Actual official high and low records may vary slightly from our data, if they occured in-between our weather recording intervals... More about our weather records

Advertising

Kohtla-Järve Weather History for the Previous 24 Hours

Scroll right to see more
 ConditionsComfort  
Time TempWeatherWind HumidityBarometerVisibility
10:00 PM
Tue, May 3
52 °FPassing clouds.2 mph56%30.11 "Hg22 mi
9:00 PM54 °FPassing clouds.2 mph51%30.10 "Hg31 mi
8:00 PM56 °FSunny.3 mph48%30.10 "Hg28 mi
7:00 PM59 °FSunny.5 mph38%30.09 "Hg25 mi
6:00 PM60 °FPassing clouds.5 mph34%30.10 "Hg22 mi
5:00 PM60 °FPassing clouds.7 mph36%30.11 "Hg22 mi
4:00 PM62 °FSunny.6 mph39%30.11 "Hg22 mi
3:00 PM63 °FPassing clouds.6 mph38%30.12 "Hg22 mi
2:00 PM63 °FPassing clouds.5 mph35%30.13 "Hg22 mi
1:00 PM61 °FPartly sunny.2 mph43%30.14 "Hg28 mi
12:00 PM61 °FPartly sunny.2 mph44%30.15 "Hg22 mi
11:00 AM60 °FSunny.3 mph39%30.16 "Hg18 mi
9:00 AM57 °FSunny.2 mph42%30.17 "Hg22 mi
8:00 AM55 °FSunny.1 mph54%30.18 "Hg19 mi
7:00 AM45 °FSunny.No wind81%30.18 "Hg22 mi
6:00 AM38 °FSunny.No wind89%30.18 "Hg18 mi
3:00 AM37 °FClear.1 mph90%30.20 "Hg16 mi
2:00 AM39 °FFog.No wind89%30.21 "Hg4 mi
1:00 AM40 °FClear.No wind92%30.21 "Hg17 mi
12:00 AM43 °FClear.No wind86%30.21 "Hg22 mi
Weather by CustomWeather, © 2016

See weather overviewHow to use our weather pages